Regional Weather Roundup
Issued by NWS Upton, NY

Current Version | Previous Version | Graphics & Text | Print | Product List | Glossary Off
Versions: 1 2 3 4 5 6 7 8 9 10 11 12 13 14 15 16 17 18 19 20 21 22 23 24 25 26 27 28 29 30 31 32 33 34 35 36 37 38 39 40 41 42 43 44 45 46 47 48 49 50

000
ASUS41 KOKX 241305
RWROKX

REGIONAL WEATHER ROUNDUP
NATIONAL WEATHER SERVICE NEW YORK NY
800 AM EST MON NOV 24 2014

NOTE: "FAIR" INDICATES FEW OR NO CLOUDS BELOW 12,000 FEET WITH NO
SIGNIFICANT WEATHER AND/OR OBSTRUCTIONS TO VISIBILITY.

NYZ071-072-176-178-NJZ106-104-241400-
NEW YORK CITY METRO AREA


CITY           SKY/WX    TMP DP  RH WIND       PRES   REMARKS
CENTRAL PARK   CLOUDY    61  58  90 S8G21     29.71F
LAGUARDIA APRT LGT RAIN  61  58  90 S20G29    29.69F FOG
KENNEDY INTL   LGT RAIN  59  56  89 S24       29.72F FOG
NEWARK/LIBERTY LGT RAIN  63  59  87 S15       29.68F
BRNX BOT. GARD   N/A     59  57  94 S23       29.70F
TETERBORO      LGT RAIN  63  59  88 S17G24    29.67S FOG
$$

NYZ177-179-078>081-241400-
LONG ISLAND NEW YORK

CITY           SKY/WX    TMP DP  RH WIND       PRES   REMARKS
FARMINGDALE    CLOUDY    62  59  90 S25G36    29.72F FOG
ISLIP          LGT RAIN  61  58  90 S21G28    29.72F FOG
SHIRLEY        RAIN      60  59  96 S14G24    29.76R FOG
WESTHAMPTON    RAIN      61  59  93 S15G31    29.75F FOG
MONTAUK POINT    N/A     58  57  97 S14G26    29.80S
$$

NYZ052-065-067-241400-
HUDSON VALLEY

CITY           SKY/WX    TMP DP  RH WIND       PRES   REMARKS
WHITE PLAINS   LGT RAIN  60  58  92 S14G25    29.71R FOG
NEWBURGH       CLOUDY    63  59  88 S15G23    29.65S
MONTGOMERY     LGT RAIN  63  59  87 S13G22    29.62R
POUGHKEEPSIE   CLOUDY    64  59  83 S15G29    29.64S
ALBANY         LGT RAIN  51  49  92 SE3       29.59F VSB 1
$$

NJZ001-105-106-008-010-013-015-019>022-104-241400-
NEW JERSEY

CITY           SKY/WX    TMP DP  RH WIND       PRES   REMARKS
NEWARK/LIBERTY LGT RAIN  63  59  87 S15       29.68F
TETERBORO      LGT RAIN  63  59  88 S17G24    29.67S FOG
CALDWELL       CLOUDY    64  59  83 S10G21    29.67F
MORRISTOWN     CLOUDY    64  63  94 S14G25    29.67F
SOMERVILLE     CLOUDY    65  61  87 S12G21    29.65F
SUSSEX         CLOUDY    64  59  83 SW9G21    29.64R
ANDOVER          N/A     63  59  87 S10G25    29.65R
TRENTON        CLOUDY    64  61  90 S17G24    29.68S
MILLVILLE      PTSUNNY   63  61  93 VRB5      29.71F
ATLANTIC CITY  CLOUDY    62  62 100 S17       29.73F
WRIGHTSTOWN    CLOUDY    64  64 100 S15G23    29.67F
TOMS RIVER     CLOUDY    63  61  94 SW8G17    29.73S
BELMAR         CLOUDY    63  57  82 S13G18    29.72S
$$

PAZ047>061-062-071-241400-
EASTERN PENNSYLVANIA

CITY           SKY/WX    TMP DP  RH WIND       PRES   REMARKS
PHILADELPHIA   MOCLDY    64  60  87 S15       29.69S
ALLENTOWN      CLOUDY    64  58  80 SW15      29.64S
SCRANTON       CLOUDY    64  56  75 SW15G26   29.58R
$$

CTZ002-004>006-009-010-012-RIZ004-006-007-MAZ004-011-015-241400-
SOUTHERN NEW ENGLAND
 IN CT

CITY           SKY/WX    TMP DP  RH WIND       PRES   REMARKS
BRADLEY INTL   RAIN      62  58  86 S18G26    29.68F FOG
HARTFORD       RAIN      62  59  90 S16G30    29.70F FOG
DANBURY        LGT RAIN  62  57  83 S13G24    29.71S
WTRBRY/OXFORD  RAIN      61  55  82 SW16G30   29.74  FOG
BRIDGEPORT     LGT RAIN  61  59  93 S21G29    29.73R
MERIDEN        RAIN      61  59  93 S18G31    29.72F FOG
NEW HAVEN      LGT RAIN  61  57  87 S21G31    29.74S FOG
CHESTER        HVY RAIN  61  61 100 S23G32    29.77R VSB 3/4
GROTON         LGT RAIN  58  58 100 S26G39    29.76F VSB 1
WILLIMANTIC    LGT RAIN  62  58  86 S18G28    29.75F FOG

 IN RI

CITY           SKY/WX    TMP DP  RH WIND       PRES   REMARKS
PROVIDENCE     LGT RAIN  57  56  96 S22G35    29.80F FOG
BLOCK ISLAND   CLOUDY    59  55  88 S21G30    29.81F
WESTERLY       LGT RAIN  59  58  96 SE20G29   29.80F FOG

 IN MA

CITY           SKY/WX    TMP DP  RH WIND       PRES   REMARKS
BOSTON         LGT RAIN  55  54  96 S23G32    29.80F FOG
WORCESTER      HVY RAIN  56  55  97 S16G26    29.75F FOG
WESTFIELD      LGT RAIN  42  41  96 CALM      29.70F FOG
PROVINCETOWN   CLOUDY    55  54  94 S20G31    29.90F
NANTUCKET      RAIN      56  53  90 S22G30    29.93F FOG
$$

ANZ330-335-338-340-345-350-353-355-241400-
COASTAL MARINE OBSERVATIONS


STATION/POSITION TIME  SKY/WX   TEMP    WIND        PRES    VSBY  WAVE
                                AIR SEA DIR/SP/G                  HT/PER
                 (UTC)          (F)     (DEG/KT/KT) (MB)    (MI)  (FT/S)
NY HARB ENTRANCE 1300            60 55  210/ 23/ 29 1006.4          9/ 7
4S FIRE IS       1300               53                N/A           8/ 7
20S FIRE ISLAND  1300            61 56  180/ 27/ 33 1006.2          8/ 6
23SW MTP         1300                                 N/A           7/ 5
HUDSON CANYON    1300            62 60  180/ 25/ 29 1008.0          9/ 8
EXECUTION ROCKS  NOT AVBL
WESTERN LI SOUND NOT AVBL
CENTRAL LI SOUND NOT AVBL
EASTERN LI SOUND NOT AVBL
ROBBINS REEF     1300            57     180/ 16/ 18 1004.1
$$


>>>>>>>>>>>>>>>>>>>>>>>>>>>> KEY <<<<<<<<<<<<<<<<<<<<<<<<<<<
>                                                          <
>     SKY/WX - SKY CONDITION/PRESENT WEATHER               <
>     TMP    - TEMPERATURE IN FAHRENHEIT                   <
>     DP     - DEWPOINT IN FAHRENHEIT                      <
>     RH     - RELATIVE HUMIDITY IN PERCENT                <
>     WIND   - DIRECTION AND SPEED IN MPH                  <
>     PRES   - MEAN SEA LEVEL PRESSURE IN INCHES OF HG     <
>     WCI    - WIND CHILL INDEX                            <
>     VSB    - VISIBILITY IN MILES                         <
>     HX     - HEAT INDEX                                  <
>     TC     - TEMPERATURE IN CELSIUS                      <
>     VRB    - VARIABLE WIND DIRECTION                     <
>                                                          <
>>>>>>>>>>>>>>>>>>>>>>>>>>>> KEY <<<<<<<<<<<<<<<<<<<<<<<<<<<





USA.gov is the U.S. government's official web portal to all federal, state and local government web resources and services.